Location: Black River Observatory
(43.1000°N, 82.6200°W)
Time: 14:54:34
(UTC-04:00)

Daily predictions for brighter satellites

Satellite Brightness Start Highest point End
(mag) Time Altitude Azimuth Time Altitude Azimuth Time Altitude Azimuth
ATLAS CENTAUR R/B 3.6 19:25:22 10° SSW 19:30:02 65° ESE 19:44:34 10° NE
IDEFIX/ARIANE 42P 3.4 19:28:56 10° S 19:34:06 59° W 19:39:19 10° NNW
CZ-4 R/B 4.2 19:31:24 10° SSW 19:34:33 23° W 19:37:43 10° NW
SL-16 R/B 2.6 19:29:04 10° SSW 19:34:44 71° WNW 19:40:27 10° NNE
Cosmos 1766 Rocket 3.7 19:31:36 10° N 19:35:51 50° ENE 19:40:03 10° SSE
Cosmos 1072 Rocket 4.5 19:30:37 10° S 19:36:40 68° E 19:42:44 10° NNE
Cosmos-2242 3.7 19:33:08 10° SSE 19:37:05 34° E 19:41:04 10° NNE
Cosmos 724 4.4 19:33:26 10° SSW 19:39:16 64° ESE 19:45:18 10° NE
Cosmos 1758 3.7 19:37:34 10° SSE 19:41:26 42° E 19:45:20 10° NNE
CENTAUR R/B 3.3 19:38:38 10° S 19:43:45 29° ESE 19:49:20 10° NE
Cosmos 1452 Rocket 3.5 19:38:47 10° NNW 19:44:05 85° ENE 19:49:20 10° SSE
ISS -2.9 19:41:30 10° SW 19:44:37 45° SE 19:47:45 10° ENE
Cosmos 1766 3.7 19:44:33 10° SSW 19:48:31 69° W 19:52:31 10° N
Meteor 1-21 Rocket 4.3 19:43:15 10° N 19:48:40 53° ENE 19:54:03 10° SSE
Abrixas 2.4 19:47:13 10° WSW 19:50:12 76° SSE 19:53:12 10° ENE
GPS 2-04 Rocket1 4.1 19:47:56 10° SW 19:50:36 21° S 19:53:20 10° ESE
NOAA 12 4.1 19:47:01 10° SSE 19:52:12 61° ENE 19:57:26 10° N
SAR-Lupe-1 4.0 19:49:05 10° SSE 19:52:36 62° ENE 19:56:08 10° N
Meteor 1-28 Rocket 3.4 19:49:23 10° NNE 19:53:00 47° E 19:56:34 10° S
DMSP B5D1-3 4.5 19:48:36 10° NNE 19:53:44 80° ESE 19:58:51 10° S
Cosmos 1943 Rocket 3.6 19:55:39 10° N 19:59:42 20° NE 20:02:49 13° E
NOSS 3-2 (C) 4.0 19:55:42 10° SW 20:01:46 65° NW 20:08:28 10° NNE
Cosmos 1420 Rocket 4.0 19:56:58 10° NNW 20:02:17 70° ENE 20:07:35 10° SSE
Cosmos 468 4.4 19:58:29 10° SSW 20:03:43 77° ESE 20:08:57 10° NNE
ERBS 4.2 20:01:24 10° NNW 20:04:01 19° NNE 20:05:53 13° ENE
Cosmos 1408 Rocket 3.8 20:01:23 10° NNW 20:05:44 71° W 20:10:00 10° S
Cosmos 1346 2.9 20:02:47 10° N 20:05:45 65° E 20:08:42 10° SSE
Cosmos 1500 Rocket 4.0 20:03:11 10° N 20:07:22 39° ENE 20:11:33 10° SSE
H-2A R/B 4.2 20:06:03 16° E 20:07:39 20° ENE 20:10:30 10° NNE
Cosmos 1842 Rocket 4.0 20:06:12 10° SSE 20:10:11 37° E 20:14:13 10° NNE
Helios 1A 3.2 20:07:02 10° SE 20:11:04 47° ENE 20:15:09 10° N
Cosmos 1464 Rocket 4.3 20:05:01 10° SSW 20:11:14 73° W 20:17:25 10° N
Cosmos 2369 Rocket 2.5 20:06:06 10° NNW 20:11:35 48° ENE 20:16:54 11° SE
Cosmos 2034 Rocket 4.0 20:05:49 10° S 20:12:06 86° E 20:18:29 10° N
Cosmos 1805 3.3 20:08:37 10° S 20:12:33 81° W 20:16:31 10° N
Cosmos 1943 3.5 20:09:09 10° S 20:14:23 41° ESE 20:19:38 10° NE
FREGAT/IRIS 2.7 20:12:37 10° S 20:15:42 83° WSW 20:18:48 10° NNW
Spot 2 Rocket 3.4 20:12:19 10° SSE 20:17:18 68° ENE 20:22:19 10° N
AVUM R/B 4.4 20:16:10 10° SSE 20:17:52 21° SE 20:17:52 21° SE
Cosmos 1048 Rocket 3.9 20:16:46 10° SSW 20:22:02 74° ESE 20:27:16 10° NNE
Cosmos 1603 3.9 20:16:56 10° SSW 20:22:40 76° WNW 20:28:28 10° NNE
HJ-1C 3.3 20:22:14 10° SSE 20:25:36 84° ENE 20:28:58 10° N
Cosmos 1733 3.5 20:23:01 10° SSE 20:26:42 44° E 20:30:24 10° NNE
Cosmos 158 Rocket 4.0 20:22:48 10° S 20:27:28 47° ESE 20:32:08 10° NNE
Gbstr 26 Del rocket 3.2 20:24:52 10° SW 20:29:10 63° SE 20:32:54 19° ENE
Cosmos 1269 Rocket 4.1 20:24:45 10° SSW 20:30:02 82° WNW 20:35:21 10° NNE
USA 215 3.5 20:25:36 10° ENE 20:31:47 45° SE 20:37:58 10° SSW
Cosmos 1674 2.6 20:27:55 10° N 20:31:50 78° E 20:35:42 10° SSE
Cosmos 1953 3.5 20:28:34 10° SSW 20:32:23 46° WNW 20:36:14 10° N
Cosmos 1174 3.9 20:27:51 10° SSW 20:32:30 61° ESE 20:35:32 15° NE
TELKOM 3 3.9 20:30:32 10° WNW 20:33:11 41° SW 20:33:42 34° S
Helios 1B rocket 2.3 20:31:07 10° NNE 20:35:15 79° ESE 20:39:22 10° S
Spot 1 4.4 20:31:12 10° S 20:35:50 70° WSW 20:40:12 10° NNW
Cosmos 1743 Rocket 3.9 20:32:57 10° NNW 20:37:22 69° W 20:41:43 10° S
Cosmos 1470 2.6 20:35:11 10° S 20:39:03 79° E 20:42:56 10° N
CZ-4B DEB 2.8 20:39:43 47° ESE 20:40:15 54° ENE 20:43:27 10° N
Resurs 1-3 3.6 20:38:21 10° SSE 20:42:44 88° WSW 20:47:10 10° NNW
ATLAS 5 CENTAUR R/B 3.7 20:39:34 10° WSW 20:43:55 31° NW 20:48:37 10° NNE
Cosmos 1544 4.4 20:43:09 10° SSW 20:46:44 43° WNW 20:50:20 10° N
Resurs 01 Rocket 2.4 20:49:02 10° S 20:53:22 52° W 20:57:44 10° NNW
ERS-1 Rocket 4.0 20:56:03 28° ENE 20:56:03 28° ENE 20:59:57 10° N
Cosmos 2058 3.3 20:52:12 10° N 20:55:45 43° ENE 20:55:45 43° ENE
Meteor 1-16 Rocket 4.0 20:54:11 10° S 20:59:22 59° E 21:04:37 10° NNE
SL-8 R/B 4.0 20:57:38 10° W 21:02:23 62° NNW 21:04:09 36° NE
ALOS 2.3 20:58:30 15° S 21:02:23 78° WSW 21:07:05 10° NNW
Meteor 2-1 Rocket 4.4 20:58:09 15° SSE 21:02:48 49° E 21:08:27 10° NNE
ASTEX 1 3.6 21:05:03 10° N 21:09:56 70° W 21:14:47 10° SSW
Cosmos 2151 2.9 21:05:47 10° N 21:10:02 81° W 21:11:12 47° S
Meteor 1-29 4.3 21:06:46 10° N 21:10:06 41° WNW 21:13:23 10° SW
Cosmos 1110 Rocket 3.9 21:07:11 10° NNW 21:12:32 89° ENE 21:14:19 43° SSE
GP-B 3.0 21:09:18 10° N 21:13:46 87° W 21:15:21 40° S
Cosmos 2279 Rocket 3.9 21:09:23 17° SSE 21:14:08 60° E 21:20:14 10° NNE
Meteor 1-11 4.1 21:09:43 10° N 21:15:33 82° E 21:17:57 37° SSE
H-2A R/B 4.4 21:20:18 13° NNE 21:20:18 13° NNE 21:21:06 10° NNE
FENGYUN 3A 4.1 21:13:33 11° S 21:18:37 61° W 21:23:59 10° NNW
Cosmos 1805 Rocket 4.0 21:15:03 10° N 21:18:30 49° NNE 21:18:30 49° NNE
Cosmos 2221 3.5 21:21:55 35° NNE 21:21:55 35° NNE 21:24:30 10° N
ISS -1.5 21:18:14 10° W 21:20:46 30° NW 21:20:46 30° NW
Cosmos 2026 Rocket 4.0 21:26:24 10° N 21:32:31 75° W 21:35:54 28° S
Cosmos 1428 Rocket 4.4 21:27:37 10° N 21:33:55 75° E 21:34:49 65° SE
CENTAUR R/B 3.2 21:27:53 10° SW 21:33:56 56° NW 21:40:47 10° NNE
Cosmos 2251 Rocket 3.6 21:29:38 10° SSW 21:34:51 72° WNW 21:40:07 10° NNE
Cosmos 494 Rocket 4.3 21:30:01 10° SSW 21:37:18 38° NNE 21:40:27 10° NNE
Cosmos 1655 Rocket 4.0 21:31:01 10° N 21:37:14 77° W 21:39:52 37° S
SL-14 R/B 4.3 21:34:13 10° NNW 21:37:14 44° NW 21:37:14 44° NW
H-2A R/B 4.4 21:41:19 30° WSW 21:41:45 31° W 21:45:14 10° NNW
Cosmos 1331 Rocket 4.5 21:37:26 10° NNW 21:42:39 57° WSW 21:43:31 50° SW
Cosmos 1943 Rocket 2.2 21:38:27 10° NNW 21:44:04 73° WSW 21:44:23 71° SW
Meteor 2-20 4.3 21:41:18 10° N 21:47:30 89° W 21:47:51 81° S
Meteor 2-20 Rocket 4.4 21:42:20 10° N 21:47:58 69° NE 21:47:58 69° NE
Aureole 3 4.5 21:45:44 10° N 21:50:29 56° N 21:50:29 56° N
Cosmos 2369 Rocket 4.1 21:50:42 10° NW 21:55:18 26° WSW 21:58:45 15° SSW
Cosmos 1302 Rocket 4.5 21:52:01 10° NNW 21:56:15 57° NW 21:56:15 57° NW
Envisat 4.0 22:08:51 41° NNW 22:08:51 41° NNW 22:12:11 10° NNW
USA 215 3.6 22:13:01 44° NNE 22:14:55 60° NNW 22:21:18 10° WSW
